Terminal Aerodrome Forecast
Issued by NWS Sterling, VA

Home | Current Version | Previous Version | Text Only | Print | Product List | Glossary On
Versions: 1 2 3 4 5 6 7 8 9 10 11 12 13 14 15 16 17 18 19 20 21 22 23 24 25 26 27
000
FTUS41 KLWX 222000 AAA
TAFBWI
TAF AMD
KBWI 222036Z 2221/2324 31010G20KT P6SM SCT050 BKN250
     FM222300 32010KT P6SM FEW045
     FM230500 VRB03KT P6SM SKC
     FM231400 36004KT P6SM FEW250=

USA.gov is the U.S. government's official web portal to all federal, state and local government web resources and services.